Time,TemperatureF,DewpointF,PressureIn,WindDirection,WindDirectionDegrees,WindSpeedMPH,WindSpeedGustMPH,Humidity,HourlyPrecipIn,Conditions,Clouds,dailyrainin,SoftwareType,DateUTC
2013-03-27 00:03:00,44.0,28.0,-100.00,North,5,9.0,15.0,54,-99.99,,,-99.99,,2013-03-27 04:03:00,
2013-03-27 00:13:00,44.0,29.0,-100.00,North,5,13.0,19.0,57,-99.99,,,-99.99,,2013-03-27 04:13:00,
2013-03-27 00:23:00,44.0,29.0,-100.00,North,5,13.0,19.0,57,-99.99,,,-99.99,,2013-03-27 04:23:00,
2013-03-27 00:33:00,43.0,30.0,-100.00,North,5,11.0,17.0,60,-99.99,,,-99.99,,2013-03-27 04:33:00,
2013-03-27 00:43:00,43.0,31.0,-100.00,North,5,9.0,15.0,62,-99.99,,,-99.99,,2013-03-27 04:43:00,
2013-03-27 00:53:00,43.0,31.0,-100.00,North,5,9.0,15.0,62,-99.99,,,-99.99,,2013-03-27 04:53:00,
2013-03-27 01:03:00,43.0,32.0,-100.00,North,5,7.0,14.0,65,-99.99,,,-99.99,,2013-03-27 05:03:00,
2013-03-27 01:13:00,43.0,33.0,-100.00,North,5,10.0,13.0,66,-99.99,,,-99.99,,2013-03-27 05:13:00,
2013-03-27 01:23:00,43.0,33.0,-100.00,North,5,10.0,13.0,66,-99.99,,,-99.99,,2013-03-27 05:23:00,
2013-03-27 01:33:00,43.0,34.0,-100.00,North,5,9.0,15.0,69,-99.99,,,-99.99,,2013-03-27 05:33:00,
2013-03-27 01:42:00,44.0,34.0,-100.00,North,5,11.0,18.0,68,-99.99,,,-99.99,,2013-03-27 05:42:00,
2013-03-27 01:53:00,44.0,34.0,-100.00,North,5,11.0,18.0,68,-99.99,,,-99.99,,2013-03-27 05:53:00,
2013-03-27 02:02:00,44.0,34.0,-100.00,North,5,19.0,24.0,68,-99.99,,,-99.99,,2013-03-27 06:02:00,
2013-03-27 02:12:00,44.0,34.0,-100.00,North,10,10.0,15.0,70,-99.99,,,-99.99,,2013-03-27 06:12:00,
2013-03-27 02:22:00,44.0,34.0,-100.00,North,10,10.0,15.0,70,-99.99,,,-99.99,,2013-03-27 06:22:00,
2013-03-27 02:32:00,42.0,34.0,-100.00,North,10,6.0,9.0,72,-99.99,,,-99.99,,2013-03-27 06:32:00,
2013-03-27 02:42:00,42.0,34.0,-100.00,North,10,10.0,12.0,73,-99.99,,,-99.99,,2013-03-27 06:42:00,
2013-03-27 02:53:00,42.0,34.0,-100.00,North,10,10.0,12.0,73,-99.99,,,-99.99,,2013-03-27 06:53:00,
2013-03-27 03:00:00,41.0,34.0,-100.00,North,10,7.0,10.0,76,-99.99,,,-99.99,,2013-03-27 07:00:00,
2013-03-27 03:02:00,41.0,33.0,-100.00,North,10,8.0,13.0,73,-99.99,,,-99.99,,2013-03-27 07:02:00,
2013-03-27 03:12:00,41.0,34.0,-100.00,North,10,8.0,11.0,75,-99.99,,,-99.99,,2013-03-27 07:12:00,
2013-03-27 03:22:00,41.0,34.0,-100.00,North,10,8.0,11.0,75,-99.99,,,-99.99,,2013-03-27 07:22:00,
2013-03-27 03:30:00,40.0,34.0,-100.00,North,10,8.0,12.0,78,-99.99,,,-99.99,,2013-03-27 07:30:00,
2013-03-27 03:32:00,41.0,34.0,-100.00,North,10,6.0,11.0,76,-99.99,,,-99.99,,2013-03-27 07:32:00,
2013-03-27 03:43:00,41.0,34.0,-100.00,North,10,7.0,10.0,76,-99.99,,,-99.99,,2013-03-27 07:43:00,
2013-03-27 03:54:00,41.0,34.0,-100.00,North,10,7.0,10.0,76,-99.99,,,-99.99,,2013-03-27 07:54:00,
2013-03-27 04:22:00,40.0,34.0,-100.00,North,10,8.0,12.0,78,-99.99,,,-99.99,,2013-03-27 08:22:00,
2013-03-27 04:43:00,41.0,34.0,-100.00,North,10,10.0,13.0,75,-99.99,,,-99.99,,2013-03-27 08:43:00,
2013-03-27 04:52:00,41.0,34.0,-100.00,North,10,10.0,13.0,75,-99.99,,,-99.99,,2013-03-27 08:52:00,
2013-03-27 05:02:00,41.0,32.0,-100.00,North,10,13.0,17.0,72,-99.99,,,-99.99,,2013-03-27 09:02:00,
2013-03-27 05:12:00,41.0,32.0,-100.00,North,5,12.0,18.0,69,-99.99,,,-99.99,,2013-03-27 09:12:00,
2013-03-27 05:22:00,41.0,32.0,-100.00,North,5,12.0,18.0,69,-99.99,,,-99.99,,2013-03-27 09:22:00,
2013-03-27 05:33:00,41.0,32.0,-100.00,North,5,11.0,19.0,70,-99.99,,,-99.99,,2013-03-27 09:33:00,
2013-03-27 05:42:00,41.0,32.0,-100.00,North,10,13.0,17.0,70,-99.99,,,-99.99,,2013-03-27 09:42:00,
2013-03-27 05:52:00,41.0,32.0,-100.00,North,10,13.0,17.0,70,-99.99,,,-99.99,,2013-03-27 09:52:00,
2013-03-27 06:03:00,41.0,32.0,-100.00,North,10,12.0,18.0,70,-99.99,,,-99.99,,2013-03-27 10:03:00,
2013-03-27 06:13:00,41.0,32.0,-100.00,North,10,12.0,18.0,71,-99.99,,,-99.99,,2013-03-27 10:13:00,
2013-03-27 06:23:00,41.0,32.0,-100.00,North,10,12.0,18.0,71,-99.99,,,-99.99,,2013-03-27 10:23:00,
2013-03-27 06:32:00,40.0,32.0,-100.00,North,10,14.0,17.0,72,-99.99,,,-99.99,,2013-03-27 10:32:00,
2013-03-27 06:42:00,40.0,32.0,-100.00,North,10,13.0,19.0,72,-99.99,,,-99.99,,2013-03-27 10:42:00,
2013-03-27 06:53:00,40.0,32.0,-100.00,North,10,13.0,19.0,72,-99.99,,,-99.99,,2013-03-27 10:53:00,
2013-03-27 07:03:00,40.0,32.0,-100.00,North,10,14.0,19.0,72,-99.99,,,-99.99,,2013-03-27 11:03:00,
2013-03-27 07:12:00,40.0,32.0,-100.00,North,10,12.0,18.0,73,-99.99,,,-99.99,,2013-03-27 11:12:00,
2013-03-27 07:22:00,40.0,32.0,-100.00,North,10,12.0,18.0,73,-99.99,,,-99.99,,2013-03-27 11:22:00,
2013-03-27 07:32:00,39.0,32.0,-100.00,North,10,10.0,13.0,76,-99.99,,,-99.99,,2013-03-27 11:32:00,
2013-03-27 07:42:00,39.0,33.0,-100.00,North,10,9.0,12.0,78,-99.99,,,-99.99,,2013-03-27 11:42:00,
2013-03-27 07:53:00,39.0,33.0,-100.00,North,10,9.0,12.0,78,-99.99,,,-99.99,,2013-03-27 11:53:00,
2013-03-27 08:02:00,40.0,33.0,-100.00,North,10,11.0,14.0,78,-99.99,,,-99.99,,2013-03-27 12:02:00,
2013-03-27 08:12:00,41.0,33.0,-100.00,North,5,10.0,13.0,75,-99.99,,,-99.99,,2013-03-27 12:12:00,
2013-03-27 08:23:00,41.0,33.0,-100.00,North,5,10.0,13.0,75,-99.99,,,-99.99,,2013-03-27 12:23:00,
2013-03-27 08:32:00,42.0,33.0,-100.00,North,5,11.0,17.0,70,-99.99,,,-99.99,,2013-03-27 12:32:00,
2013-03-27 08:43:00,42.0,32.0,-100.00,North,5,14.0,20.0,67,-99.99,,,-99.99,,2013-03-27 12:43:00,
2013-03-27 08:52:00,42.0,32.0,-100.00,North,5,14.0,20.0,67,-99.99,,,-99.99,,2013-03-27 12:52:00,
2013-03-27 09:02:00,42.0,32.0,-100.00,North,5,13.0,22.0,67,-99.99,,,-99.99,,2013-03-27 13:02:00,
2013-03-27 09:12:00,42.0,31.0,-100.00,North,5,13.0,23.0,66,-99.99,,,-99.99,,2013-03-27 13:12:00,
2013-03-27 09:23:00,42.0,31.0,-100.00,North,5,13.0,23.0,66,-99.99,,,-99.99,,2013-03-27 13:23:00,
2013-03-27 09:32:00,42.0,31.0,-100.00,North,5,11.0,20.0,65,-99.99,,,-99.99,,2013-03-27 13:32:00,
2013-03-27 09:42:00,42.0,31.0,-100.00,North,5,16.0,22.0,63,-99.99,,,-99.99,,2013-03-27 13:42:00,
2013-03-27 09:53:00,42.0,31.0,-100.00,North,5,16.0,22.0,63,-99.99,,,-99.99,,2013-03-27 13:53:00,
2013-03-27 10:02:00,43.0,30.0,-100.00,North,5,16.0,25.0,61,-99.99,,,-99.99,,2013-03-27 14:02:00,
2013-03-27 10:12:00,43.0,30.0,-100.00,North,5,18.0,24.0,59,-99.99,,,-99.99,,2013-03-27 14:12:00,
2013-03-27 10:22:00,43.0,30.0,-100.00,North,5,18.0,24.0,59,-99.99,,,-99.99,,2013-03-27 14:22:00,
2013-03-27 10:32:00,44.0,30.0,-100.00,North,5,13.0,23.0,58,-99.99,,,-99.99,,2013-03-27 14:32:00,
2013-03-27 10:42:00,44.0,30.0,-100.00,North,5,15.0,25.0,57,-99.99,,,-99.99,,2013-03-27 14:42:00,
2013-03-27 10:52:00,44.0,30.0,-100.00,North,5,15.0,25.0,57,-99.99,,,-99.99,,2013-03-27 14:52:00,
2013-03-27 11:03:00,44.0,29.0,-100.00,North,5,20.0,27.0,56,-99.99,,,-99.99,,2013-03-27 15:03:00,
2013-03-27 11:12:00,44.0,29.0,-100.00,North,5,16.0,25.0,55,-99.99,,,-99.99,,2013-03-27 15:12:00,
2013-03-27 11:23:00,44.0,29.0,-100.00,North,5,16.0,25.0,55,-99.99,,,-99.99,,2013-03-27 15:23:00,
2013-03-27 11:33:00,45.0,29.0,-100.00,North,5,17.0,24.0,53,-99.99,,,-99.99,,2013-03-27 15:33:00,
2013-03-27 11:43:00,46.0,29.0,-100.00,North,5,21.0,34.0,51,-99.99,,,-99.99,,2013-03-27 15:43:00,
2013-03-27 11:53:00,46.0,29.0,-100.00,North,5,21.0,34.0,51,-99.99,,,-99.99,,2013-03-27 15:53:00,
2013-03-27 12:00:00,47.0,27.0,-100.00,North,5,15.0,27.0,45,-99.99,,,-99.99,,2013-03-27 16:00:00,
2013-03-27 12:03:00,46.0,28.0,-100.00,North,5,23.0,30.0,49,-99.99,,,-99.99,,2013-03-27 16:03:00,
2013-03-27 12:13:00,47.0,28.0,-100.00,North,5,15.0,26.0,49,-99.99,,,-99.99,,2013-03-27 16:13:00,
2013-03-27 12:23:00,47.0,28.0,-100.00,North,5,15.0,26.0,49,-99.99,,,-99.99,,2013-03-27 16:23:00,
2013-03-27 12:33:00,46.0,27.0,-100.00,North,5,18.0,28.0,47,-99.99,,,-99.99,,2013-03-27 16:33:00,
2013-03-27 12:42:00,47.0,27.0,-100.00,North,5,15.0,27.0,45,-99.99,,,-99.99,,2013-03-27 16:42:00,
2013-03-27 12:52:00,47.0,27.0,-100.00,North,5,15.0,27.0,45,-99.99,,,-99.99,,2013-03-27 16:52:00,
2013-03-27 13:12:00,49.0,25.0,-100.00,North,5,14.0,22.0,39,-99.99,,,-99.99,,2013-03-27 17:12:00,
2013-03-27 13:22:00,49.0,25.0,-100.00,North,5,14.0,22.0,39,-99.99,,,-99.99,,2013-03-27 17:22:00,
2013-03-27 13:32:00,49.0,24.0,-100.00,North,5,15.0,26.0,37,-99.99,,,-99.99,,2013-03-27 17:32:00,
2013-03-27 13:44:00,49.0,24.0,-100.00,North,5,16.0,22.0,38,-99.99,,,-99.99,,2013-03-27 17:44:00,
2013-03-27 13:52:00,49.0,24.0,-100.00,North,5,16.0,22.0,38,-99.99,,,-99.99,,2013-03-27 17:52:00,
2013-03-27 14:03:00,49.0,25.0,-100.00,North,5,14.0,27.0,38,-99.99,,,-99.99,,2013-03-27 18:03:00,
2013-03-27 14:12:00,51.0,26.0,-100.00,North,5,10.0,21.0,38,-99.99,,,-99.99,,2013-03-27 18:12:00,
2013-03-27 14:23:00,51.0,26.0,-100.00,North,5,10.0,21.0,38,-99.99,,,-99.99,,2013-03-27 18:23:00,
2013-03-27 14:32:00,51.0,25.0,-100.00,North,5,14.0,25.0,37,-99.99,,,-99.99,,2013-03-27 18:32:00,
2013-03-27 14:42:00,51.0,24.0,-100.00,North,5,20.0,33.0,35,-99.99,,,-99.99,,2013-03-27 18:42:00,
2013-03-27 14:53:00,51.0,24.0,-100.00,North,5,20.0,33.0,35,-99.99,,,-99.99,,2013-03-27 18:53:00,
2013-03-27 15:03:00,51.0,25.0,-100.00,North,5,20.0,30.0,35,-99.99,,,-99.99,,2013-03-27 19:03:00,
2013-03-27 15:12:00,51.0,24.0,-100.00,North,5,15.0,31.0,34,-99.99,,,-99.99,,2013-03-27 19:12:00,
2013-03-27 15:22:00,51.0,24.0,-100.00,North,5,15.0,31.0,34,-99.99,,,-99.99,,2013-03-27 19:22:00,
2013-03-27 15:32:00,52.0,23.0,-100.00,North,5,20.0,32.0,32,-99.99,,,-99.99,,2013-03-27 19:32:00,
2013-03-27 15:42:00,52.0,23.0,-100.00,North,5,18.0,31.0,33,-99.99,,,-99.99,,2013-03-27 19:42:00,
2013-03-27 15:52:00,52.0,23.0,-100.00,North,5,18.0,31.0,33,-99.99,,,-99.99,,2013-03-27 19:52:00,
2013-03-27 16:03:00,53.0,24.0,-100.00,North,5,23.0,32.0,32,-99.99,,,-99.99,,2013-03-27 20:03:00,
2013-03-27 16:12:00,53.0,24.0,-100.00,North,5,20.0,32.0,32,-99.99,,,-99.99,,2013-03-27 20:12:00,
2013-03-27 16:22:00,53.0,24.0,-100.00,North,5,20.0,32.0,32,-99.99,,,-99.99,,2013-03-27 20:22:00,
2013-03-27 16:32:00,54.0,24.0,-100.00,North,5,13.0,28.0,32,-99.99,,,-99.99,,2013-03-27 20:32:00,
2013-03-27 16:43:00,53.0,24.0,-100.00,North,5,22.0,30.0,32,-99.99,,,-99.99,,2013-03-27 20:43:00,
2013-03-27 16:52:00,53.0,24.0,-100.00,North,5,22.0,30.0,32,-99.99,,,-99.99,,2013-03-27 20:52:00,
2013-03-27 17:02:00,54.0,25.0,-100.00,North,5,15.0,27.0,32,-99.99,,,-99.99,,2013-03-27 21:02:00,
2013-03-27 17:12:00,51.0,24.0,-100.00,North,5,19.0,29.0,34,-99.99,,,-99.99,,2013-03-27 21:12:00,
2013-03-27 17:23:00,51.0,24.0,-100.00,North,5,19.0,29.0,34,-99.99,,,-99.99,,2013-03-27 21:23:00,
2013-03-27 17:32:00,50.0,25.0,-100.00,North,5,12.0,27.0,37,-99.99,,,-99.99,,2013-03-27 21:32:00,
2013-03-27 17:43:00,50.0,23.0,-100.00,North,5,20.0,31.0,35,-99.99,,,-99.99,,2013-03-27 21:43:00,
2013-03-27 17:52:00,50.0,23.0,-100.00,North,5,20.0,31.0,35,-99.99,,,-99.99,,2013-03-27 21:52:00,
2013-03-27 18:03:00,49.0,24.0,-100.00,North,5,13.0,27.0,38,-99.99,,,-99.99,,2013-03-27 22:03:00,
2013-03-27 18:12:00,50.0,24.0,-100.00,North,5,18.0,29.0,37,-99.99,,,-99.99,,2013-03-27 22:12:00,
2013-03-27 18:23:00,50.0,24.0,-100.00,North,5,18.0,29.0,37,-99.99,,,-99.99,,2013-03-27 22:23:00,
2013-03-27 18:33:00,50.0,23.0,-100.00,North,5,21.0,27.0,35,-99.99,,,-99.99,,2013-03-27 22:33:00,
2013-03-27 18:42:00,50.0,24.0,-100.00,North,5,15.0,29.0,36,-99.99,,,-99.99,,2013-03-27 22:42:00,
2013-03-27 18:52:00,50.0,24.0,-100.00,North,5,15.0,29.0,36,-99.99,,,-99.99,,2013-03-27 22:52:00,
2013-03-27 19:03:00,50.0,24.0,-100.00,North,5,14.0,25.0,37,-99.99,,,-99.99,,2013-03-27 23:03:00,
2013-03-27 19:12:00,49.0,24.0,-100.00,North,5,13.0,25.0,37,-99.99,,,-99.99,,2013-03-27 23:12:00,
2013-03-27 19:22:00,49.0,24.0,-100.00,North,5,13.0,25.0,37,-99.99,,,-99.99,,2013-03-27 23:22:00,
2013-03-27 19:32:00,49.0,25.0,-100.00,North,5,10.0,22.0,39,-99.99,,,-99.99,,2013-03-27 23:32:00,
2013-03-27 19:42:00,48.0,25.0,-100.00,North,5,10.0,20.0,40,-99.99,,,-99.99,,2013-03-27 23:42:00,
2013-03-27 19:52:00,48.0,25.0,-100.00,North,5,10.0,20.0,40,-99.99,,,-99.99,,2013-03-27 23:52:00,
2013-03-27 20:02:00,47.0,25.0,-100.00,North,5,14.0,23.0,41,-99.99,,,-99.99,,2013-03-28 00:02:00,
2013-03-27 20:12:00,47.0,26.0,-100.00,North,5,12.0,19.0,44,-99.99,,,-99.99,,2013-03-28 00:12:00,
2013-03-27 20:22:00,47.0,26.0,-100.00,North,5,12.0,19.0,44,-99.99,,,-99.99,,2013-03-28 00:22:00,
2013-03-27 20:31:00,45.0,28.0,-100.00,North,5,13.0,20.0,50,-99.99,,,-99.99,,2013-03-28 00:31:00,
2013-03-27 20:33:00,46.0,26.0,-100.00,North,5,13.0,20.0,44,-99.99,,,-99.99,,2013-03-28 00:33:00,
2013-03-27 20:43:00,46.0,27.0,-100.00,North,5,13.0,20.0,46,-99.99,,,-99.99,,2013-03-28 00:43:00,
2013-03-27 20:52:00,46.0,27.0,-100.00,North,5,13.0,20.0,46,-99.99,,,-99.99,,2013-03-28 00:52:00,
2013-03-27 21:12:00,45.0,28.0,-100.00,North,5,13.0,20.0,50,-99.99,,,-99.99,,2013-03-28 01:12:00,
2013-03-27 21:22:00,45.0,28.0,-100.00,North,5,13.0,20.0,50,-99.99,,,-99.99,,2013-03-28 01:22:00,
2013-03-27 22:33:00,45.0,28.0,-100.00,North,5,17.0,27.0,51,-99.99,,,-99.99,,2013-03-28 02:33:00,
2013-03-27 22:42:00,45.0,28.0,-100.00,North,5,17.0,27.0,51,-99.99,,,-99.99,,2013-03-28 02:42:00,
2013-03-27 23:02:00,44.0,28.0,-100.00,North,5,14.0,23.0,52,-99.99,,,-99.99,,2013-03-28 03:02:00,
2013-03-27 23:12:00,44.0,27.0,-100.00,North,5,15.0,22.0,52,-99.99,,,-99.99,,2013-03-28 03:12:00,
2013-03-27 23:22:00,44.0,27.0,-100.00,North,5,15.0,22.0,52,-99.99,,,-99.99,,2013-03-28 03:22:00,
2013-03-27 23:33:00,44.0,28.0,-100.00,North,5,15.0,23.0,53,-99.99,,,-99.99,,2013-03-28 03:33:00,
2013-03-27 23:43:00,44.0,28.0,-100.00,North,5,13.0,25.0,55,-99.99,,,-99.99,,2013-03-28 03:43:00,
2013-03-27 23:53:00,44.0,28.0,-100.00,North,5,13.0,25.0,55,-99.99,,,-99.99,,2013-03-28 03:53:00,